• în Republica Moldova
  • Lista ţărilor
  • Pe 7 zile
  • Temperatura apei
  • Hartă satelitară
  • Meteo pe hartă
  • Widget-uri
  • user-avatar
    Intrare

    Meteo pe oră la Sydney

    Astăzi, 21 Iunie, Joi

    Timp Temperatura Precipitaţii Vânt Presiune Umiditate
    00:00 +10°C° 0,2 mm 3 m/s 769 mmHg 88%
    01:00 +10°C° 0,2 mm 3 m/s 769 mmHg 87%
    02:00 +10°C° 0,1 mm 3 m/s 769 mmHg 86%
    03:00 +10°C° 0,1 mm 3 m/s 769 mmHg 85%
    04:00 +10°C° 0 mm 2 m/s 769 mmHg 87%
    05:00 +10°C° 0,1 mm 2 m/s 769 mmHg 86%
    06:00 +10°C° 0,1 mm 3 m/s 769 mmHg 85%
    07:00 +10°C° 0,1 mm 3 m/s 770 mmHg 85%
    08:00 +11°C° 0,1 mm 3 m/s 770 mmHg 79%
    09:00 +13°C° 0,1 mm 3 m/s 770 mmHg 73%
    10:00 +15°C° 0 mm 1 m/s 770 mmHg 65%
    11:00 +17°C° 0,1 mm 2 m/s 770 mmHg 63%
    12:00 +18°C° 0,1 mm 2 m/s 769 mmHg 60%
    13:00 +19°C° 0,1 mm 2 m/s 769 mmHg 57%
    14:00 +18°C° 0,1 mm 2 m/s 769 mmHg 61%
    15:00 +18°C° 0,1 mm 2 m/s 769 mmHg 64%
    16:00 +17°C° 0,1 mm 2 m/s 769 mmHg 68%
    17:00 +16°C° 0 mm 2 m/s 769 mmHg 76%
    18:00 +14°C° 0 mm 1 m/s 769 mmHg 84%
    19:00 +13°C° 0 mm 1 m/s 770 mmHg 91%
    20:00 +12°C° 0 mm 1 m/s 770 mmHg 92%
    21:00 +12°C° 0 mm 1 m/s 770 mmHg 93%
    22:00 +12°C° 0 mm 1 m/s 770 mmHg 94%
    23:00 +11°C° 0 mm 1 m/s 770 mmHg 95%

    Mâine, 22 Iunie, Vineri

    Timp Temperatura Precipitaţii Vânt Presiune Umiditate
    00:00 +11°C° 0 mm 1 m/s 770 mmHg 96%
    01:00 +10°C° 0 mm 2 m/s 770 mmHg 96%
    02:00 +9°C° 0 mm 2 m/s 770 mmHg 96%
    03:00 +9°C° 0 mm 2 m/s 770 mmHg 96%
    04:00 +9°C° 0 mm 2 m/s 770 mmHg 96%
    05:00 +9°C° 0 mm 2 m/s 770 mmHg 96%
    06:00 +8°C° 0 mm 2 m/s 770 mmHg 95%
    07:00 +8°C° 0 mm 2 m/s 770 mmHg 95%
    08:00 +10°C° 0 mm 2 m/s 770 mmHg 85%
    09:00 +13°C° 0 mm 2 m/s 770 mmHg 75%
    10:00 +16°C° 0 mm 2 m/s 770 mmHg 66%
    11:00 +17°C° 0 mm 2 m/s 770 mmHg 59%
    12:00 +20°C° 0 mm 1 m/s 769 mmHg 52%
    13:00 +21°C° 0 mm 1 m/s 769 mmHg 46%
    14:00 +19°C° 0 mm 2 m/s 768 mmHg 48%
    15:00 +19°C° 0 mm 2 m/s 768 mmHg 50%
    16:00 +18°C° 0 mm 3 m/s 768 mmHg 52%
    17:00 +17°C° 0 mm 3 m/s 768 mmHg 61%
    18:00 +14°C° 0 mm 3 m/s 769 mmHg 70%
    19:00 +12°C° 0 mm 3 m/s 769 mmHg 79%
    20:00 +12°C° 0 mm 3 m/s 769 mmHg 81%
    21:00 +11°C° 0 mm 3 m/s 769 mmHg 83%
    22:00 +10°C° 0 mm 3 m/s 769 mmHg 85%
    23:00 +10°C° 0 mm 3 m/s 769 mmHg 84%

    Poimâine, 23 Iunie, Sâmbătă

    Timp Temperatura Precipitaţii Vânt Presiune Umiditate
    00:00 +9°C° 0 mm 3 m/s 769 mmHg 83%
    01:00 +9°C° 0 mm 3 m/s 769 mmHg 82%
    02:00 +8°C° 0 mm 3 m/s 768 mmHg 79%
    03:00 +8°C° 0 mm 3 m/s 768 mmHg 77%
    04:00 +8°C° 0 mm 2 m/s 768 mmHg 74%
    05:00 +8°C° 0 mm 2 m/s 768 mmHg 73%
    06:00 +7°C° 0 mm 2 m/s 768 mmHg 71%
    07:00 +7°C° 0 mm 2 m/s 768 mmHg 70%
    08:00 +10°C° 0 mm 2 m/s 768 mmHg 61%
    09:00 +13°C° 0 mm 2 m/s 768 mmHg 53%
    10:00 +15°C° 0 mm 2 m/s 768 mmHg 45%
    11:00 +17°C° 0 mm 2 m/s 768 mmHg 41%
    12:00 +18°C° 0 mm 2 m/s 767 mmHg 36%
    13:00 +20°C° 0 mm 2 m/s 766 mmHg 32%
    14:00 +20°C° 0 mm 1 m/s 766 mmHg 35%
    15:00 +20°C° 0 mm 1 m/s 766 mmHg 38%
    16:00 +19°C° 0 mm 1 m/s 766 mmHg 41%
    17:00 +16°C° 0 mm 1 m/s 767 mmHg 46%
    18:00 +14°C° 0 mm 2 m/s 767 mmHg 52%
    19:00 +12°C° 0 mm 2 m/s 768 mmHg 58%
    20:00 +12°C° 0 mm 2 m/s 768 mmHg 60%
    21:00 +10°C° 0 mm 3 m/s 768 mmHg 62%
    22:00 +9°C° 0 mm 3 m/s 769 mmHg 64%
    23:00 +9°C° 0 mm 3 m/s 769 mmHg 65%

    24 Iunie, Duminică

    Timp Temperatura Precipitaţii Vânt Presiune Umiditate
    00:00 +8°C° 0 mm 3 m/s 769 mmHg 66%
    01:00 +7°C° 0 mm 3 m/s 769 mmHg 67%
    02:00 +7°C° 0 mm 3 m/s 769 mmHg 68%
    03:00 +7°C° 0 mm 3 m/s 769 mmHg 68%
    04:00 +7°C° 0 mm 3 m/s 769 mmHg 68%
    05:00 +6°C° 0 mm 4 m/s 769 mmHg 69%
    06:00 +5°C° 0 mm 4 m/s 770 mmHg 69%
    07:00 +5°C° 0 mm 4 m/s 770 mmHg 69%
    08:00 +8°C° 0,1 mm 5 m/s 770 mmHg 65%
    09:00 +10°C° 0,1 mm 5 m/s 770 mmHg 62%
    10:00 +13°C° 0,1 mm 6 m/s 770 mmHg 58%
    11:00 +14°C° 0 mm 6 m/s 770 mmHg 55%
    12:00 +15°C° 0 mm 6 m/s 769 mmHg 53%
    13:00 +16°C° 0 mm 6 m/s 769 mmHg 50%
    14:00 +15°C° 0 mm 6 m/s 769 mmHg 51%
    15:00 +15°C° 0 mm 5 m/s 769 mmHg 52%
    16:00 +14°C° 0 mm 5 m/s 769 mmHg 53%
    17:00 +13°C° 0 mm 5 m/s 769 mmHg 60%
    18:00 +10°C° 0 mm 5 m/s 770 mmHg 66%
    19:00 +10°C° 0 mm 4 m/s 770 mmHg 73%
    20:00 +8°C° 0 mm 4 m/s 771 mmHg 75%
    21:00 +8°C° 0 mm 4 m/s 771 mmHg 77%
    22:00 +7°C° 0 mm 4 m/s 771 mmHg 78%
    23:00 +7°C° 0 mm 4 m/s 771 mmHg 79%

    25 Iunie, Luni

    Timp Temperatura Precipitaţii Vânt Presiune Umiditate
    00:00 +6°C° 0 mm 4 m/s 771 mmHg 81%
    01:00 +6°C° 0 mm 4 m/s 771 mmHg 82%
    02:00 +6°C° 0 mm 4 m/s 771 mmHg 82%
    03:00 +6°C° 0 mm 4 m/s 771 mmHg 83%
    04:00 +5°C° 0 mm 4 m/s 771 mmHg 84%
    05:00 +5°C° 0 mm 4 m/s 771 mmHg 85%
    06:00 +5°C° 0 mm 4 m/s 772 mmHg 85%
    07:00 +5°C° 0 mm 4 m/s 772 mmHg 86%
    08:00 +7°C° 0 mm 4 m/s 772 mmHg 76%
    09:00 +10°C° 0 mm 3 m/s 772 mmHg 66%
    10:00 +13°C° 0 mm 3 m/s 773 mmHg 55%
    11:00 +14°C° 0 mm 3 m/s 772 mmHg 50%
    12:00 +17°C° 0 mm 3 m/s 772 mmHg 44%
    13:00 +18°C° 0 mm 3 m/s 771 mmHg 38%
    14:00 +17°C° 0 mm 3 m/s 771 mmHg 41%
    15:00 +16°C° 0 mm 3 m/s 771 mmHg 44%
    16:00 +16°C° 0 mm 3 m/s 771 mmHg 46%
    17:00 +14°C° 0 mm 2 m/s 771 mmHg 54%
    18:00 +12°C° 0 mm 2 m/s 772 mmHg 62%
    19:00 +9°C° 0 mm 2 m/s 773 mmHg 69%
    20:00 +9°C° 0 mm 2 m/s 773 mmHg 72%
    21:00 +9°C° 0 mm 2 m/s 773 mmHg 74%
    22:00 +8°C° 0 mm 2 m/s 773 mmHg 77%
    23:00 +8°C° 0 mm 2 m/s 773 mmHg 78%

    26 Iunie, Marţi

    Timp Temperatura Precipitaţii Vânt Presiune Umiditate
    00:00 +7°C° 0 mm 2 m/s 773 mmHg 80%
    01:00 +7°C° 0 mm 2 m/s 773 mmHg 82%
    02:00 +7°C° 0 mm 2 m/s 773 mmHg 82%
    03:00 +5°C° 0 mm 3 m/s 774 mmHg 82%
    04:00 +5°C° 0 mm 3 m/s 774 mmHg 82%
    05:00 +5°C° 0 mm 3 m/s 774 mmHg 81%
    06:00 +6°C° 0 mm 2 m/s 774 mmHg 81%
    07:00 +6°C° 0 mm 2 m/s 775 mmHg 81%
    08:00 +8°C° 0 mm 2 m/s 775 mmHg 71%
    09:00 +12°C° 0 mm 2 m/s 775 mmHg 61%
    10:00 +14°C° 0 mm 2 m/s 775 mmHg 51%
    11:00 +16°C° 0 mm 2 m/s 774 mmHg 47%
    12:00 +18°C° 0 mm 1 m/s 773 mmHg 43%
    13:00 +19°C° 0 mm 1 m/s 772 mmHg 38%
    14:00 +19°C° 0 mm 1 m/s 772 mmHg 41%
    15:00 +18°C° 0 mm 1 m/s 772 mmHg 44%
    16:00 +16°C° 0 mm 2 m/s 772 mmHg 46%
    17:00 +14°C° 0 mm 1 m/s 773 mmHg 55%
    18:00 +13°C° 0 mm 1 m/s 773 mmHg 63%
    19:00 +11°C° 0 mm 1 m/s 774 mmHg 71%
    20:00 +11°C° 0 mm 1 m/s 774 mmHg 73%
    21:00 +10°C° 0 mm 1 m/s 774 mmHg 76%
    22:00 +10°C° 0 mm 1 m/s 774 mmHg 78%
    23:00 +9°C° 0 mm 1 m/s 774 mmHg 79%
    Arată mai mult